Loading…
Loading parcel record…
Hamilton, NJ·Mercer County
Owner email, phone, and authorized agent are available on Pro.
Activity captured from the county clerk's daily feed. Includes deeds, mortgages, and other recorded filings.
| Date | Type | Grantor | Grantee | Book / Page | Instrument |
|---|---|---|---|---|---|
| 2026-04-28 | MTG | — | — | 12045 / 526 | 2026017852 |
| 2026-04-21 | DLP | — | — | 443 / 556 | 2026016994 |
| 2026-04-16 | MORTGAGE | — |
| — |
| 12042 / 1618 |
| 2026016457 |
| 2026-04-16 | DEED | — | — | 6623 / 520 | 2026016456 |
| 2026-04-15 | MORTGAGE | — | — | 12042 / 425 | 2026016202 |
| 2026-03-13 | DISCHARGE OF MORTGAGE | — | — | 1692 / 1963 | 2026011494 |
| 2026-03-02 | NOTICE OF LIS PENDENS | — | — | 442 / 1630 | 2026008493 |
| 2026-02-25 | TAX SALE CERTIFICATE | — | — | 12027 / 99 | 2026007685 |
| 2026-02-25 | TAX SALE CERTIFICATE | — | — | 12027 / 96 | 2026007684 |
| 2026-02-25 | TAX SALE CERTIFICATE | — | — | 12027 / 93 | 2026007683 |
| 2026-02-25 | TAX SALE CERTIFICATE | — | — | 12027 / 90 | 2026007682 |
| 2026-02-25 | TAX SALE CERTIFICATE | — | — | 12027 / 87 | 2026007681 |
| 2026-02-25 | TAX SALE CERTIFICATE | — | — | 12027 / 84 | 2026007680 |
| 2026-02-25 | TAX SALE CERTIFICATE | — | — | 12027 / 81 | 2026007679 |
| 2026-02-10 | TAX SALE CERTIFICATE | — | — | 12022 / 1253 | 2026005236 |
| 2026-02-04 | NOTICE OF SETTLEMENT | — | — | 1624 / 197 | 2026003954 |
| 2026-01-05 | MORTGAGE | — | — | 12013 / 1311 | 2026000283 |
| 2026-01-05 | DEED | — | — | 6614 / 1520 | 2026000282 |
| 2025-11-21 | DEED | — | — | 6610 / 551 | 2025042152 |
| 2025-09-15 | MORTGAGE | — | — | 11984 / 47 | 2025033630 |
| 2025-09-15 | DEED | — | — | 6603 / 1194 | 2025033629 |
| 2025-08-25 | DEED | — | — | 6601 / 1590 | 2025031188 |
| 2025-07-10 | DEED | — | — | 6596 / 1553 | 2025025178 |
| 2025-06-10 | DEED | — | — | 6593 / 268 | 2025020532 |
| 2025-01-08 | DEED | — | — | 6579 / 1543 | 2025000712 |
| 2025-01-08 | DEED | — | — | 6579 / 1457 | 2025000650 |
| 2024-09-20 | DEED | — | — | 6569 / 449 | 2024032854 |
| 2024-09-20 | POWER OF ATTORNEY | — | — | 6569 / 444 | 2024032853 |
| 2024-09-18 | DEED | — | — | 6568 / 1876 | 2024032489 |
| 2024-09-09 | MORTGAGE | — | — | 11900 / 205 | 2024031300 |